星链-11529 (STARLINK-11529)

导读 | 星芒AI

STARLINK-11529 是 SpaceX Starlink 卫星互联网项目中的一颗低轨卫星,属于第 5 批次部署的星链卫星之一。该卫星于 2020 年 5 月 23 日由猎鹰 9 号火箭从佛罗里达州肯尼迪航天中心发射升空,用于提供全球高速互联网服务。它运行在约 550 公里的近地轨道,设计寿命为 5 至 7 年,具备自动避障功能,以减少与其他卫星或太空碎片的碰撞风险。STARLINK-11529 与其他星链卫星共同构建星链网络,为偏远地区提供宽带接入。

基本信息
目录编号:
62599
目录名称:
STARLINK-11529
国际标识:
2025-008N
轨道中心:
EARTH
卫星名称:
星链-11529
卫星全名:
星链-11529 (STARLINK-11529)
卫星状态:
在轨 (已飞行342 天)
发射日期:
2025-01-13 UTC
国别 :
美国 (US)
星等 :
--
轨道信息
数据来源 国际轨道数据
星历时间: 2025-12-21T08:46:45+0800
20小时前
查看轨道信息
半长轴: 6734.554km
偏心率: 0.0002313
轨道倾角: 43.000°
近地点辐角 257.252°
升交点赤经 240.268°
平近点角 102.809°
近地点: 354.859km
远地点: 357.975km
周期: 91.669分钟
每日圈数: 15.708674
详细信息
固有亮度:
5
最大亮度:
2.5
卫星平台:
Starlink V1.0
覆盖范围:
全球
运营商:
太空探索技术公司
运营商所在国:
美国
制造商(研发单位):
太空探索技术公司
制造商所在国:
美国
使用方式:
暂无
卫星简介
Starlink 计划是 SpaceX 推出的全球卫星互联网项目,通过发射低轨道卫星,为全球尤其是偏远地区提供高速、低延迟的互联网服务。自 2019 年起,Starlink 已部署数千颗卫星,旨在缩小全球数字鸿沟,推动互联网普及。该项目还为军事、航空等行业提供通信支持,带来广泛经济效益。
2D轨道图
3D轨道图
轨道高度分析图
轨道倾角分析图
轨道综合分析图
查看轨道综合分析图